SCP
0 0 0 0 0 0 0 0 0 0 0 0 0 0 0 0 0 0 0 0 0 -0 -0 0 -0 -0 -0 -0 0 -0 0 -0 0 0 0 -0 0 0 0 -0 -0 0 -0
0 0 0 0 0 0 0 0 0 0 0 0 0 0 0 0 0 0 0 0 -0 -0 -0 -0 -0 -0 -0 0 0 -0 -0 0 0 0 0 -0 -0 -0 -0 -0 -0 0 0
0 0 0 0 0 -0 0 0 0 0 0 0 0 0 0 0 0 -0 -0 0 0 0 0 -0 -0 -0 -0 0 0 0 0 0 0 0 0 -0 0 0 -0 -0 -0 -0 0
0 0 0 0 0 0 -0 -0 -0 0 0 0 0 0 0 0 0 -0 0 -0 0 -0 -0 0 -0 -0 -0 0 0 0 0 0 0 -0 0 0 0 -0 -0 -0 -0 -0 -0
-0 -0 0 -0 -0 -0 -0 -0 -0 -0 -0 0 0 0 0 0 0 0 0 0 0 -0 0 -0 0 0 -0 0 0 0 0 0 0 0 0 -0 -0 0 -0 -0 -0 -0 -0
-0 -0 -0 -0 -0 -0 -0 -0 -0 -0 -0 0 0 0 0 0 0 0 0 0 0 0 -0 0 -0 0 0 0 0 0 0 0 0 -0 -0 -0 -0 -0 -0 -0 -0 -0 -0
0 -0 -0 -0 -0 -0 -0 -0 -0 -0 -0 -0 0 -0 -0 -0 -0 -0 -0 0 0 -0 0 0 -0 0 -0 0 0 0 0 0 0 -0 -0 -0 -0 -0 -0 0 0 -0 -0
-0 -0 -0 -0 -0 -0 -0 -0 -0 -0 -0 -0 -0 -0 -0 0 0 -0 0 -0 -0 -0 0 0 0 0 0 -0 0 0 0 0 -0 -0 -0 -0 -0 0 0 0 0 0 0
0 -0 -0 -0 -0 -0 -0 -0 -0 -0 -0 -0 -0 -0 -0 0 0 0 0 0 0 0 -0 -0 -0 0 0 0 0 0 0 0 -0 0 -0 0 0 0 0 0 0 0 0
0 -0 -0 -0 0 0 -0 -0 -0 -0 -0 0 0 0 -0 -0 0 0 -0 -0 0 0 0 0 0 0 0 0 0 0 0 0 0 -0 0 0 0 0 0 0 0 0 0
-0 -0 -0 -0 0 -0 -0 0 -0 -0 -0 0 0 0 0 0 0 0 0 0 0 0 0 0 0 0 0 0 0 0 1 0 0 0 0 0 0 0 0 0 0 0 0
0 -0 -0 0 0 0 -0 0 0 0 0 0 0 0 0 0 0 -0 0 0 0 0 0 1 1 1 1 0 1 1 0 0 0 0 0 0 0 0 0 0 0 0 0
-0 -0 -0 -0 -0 -0 0 0 0 -0 -0 -0 -0 0 -0 -0 -0 0 0 0 0 1 1 1 2 2 2 1 0 0 0 0 0 0 1 1 0 0 0 0 0 0 1
0 0 -0 -0 0 0 -0 -0 0 0 -0 -0 -0 0 -0 0 0 0 0 0 0 1 1 0 1 1 0 1 0 0 0 0 0 0 0 1 1 0 1 1 1 1 1
0 -0 -0 -0 0 -0 0 0 0 -0 -0 -0 -0 0 0 0 0 0 0 0 0 0 0 0 1 1 0 0 1 0 0 1 0 0 0 1 1 1 1 1 1 1 1
-0 -0 0 0 0 0 0 -0 0 -0 -0 -0 -0 0 0 0 0 0 0 -0 0 1 1 0 1 1 1 1 0 1 1 0 1 0 0 1 1 1 1 1 1 1 1
-0 -0 -0 0 -0 0 0 0 -0 -0 0 0 0 0 0 0 0 0 0 -0 0 1 1 1 1 1 0 0 1 1 1 1 1 1 1 1 1 1 1 1 1 1 1
-0 0 -0 -0 0 0 0 0 0 -0 0 -0 0 0 0 0 0 1 0 1 1 1 1 1 1 1 0 1 1 1 1 1 1 1 1 1 1 0 1 1 1 1 1
-0 -0 -0 -0 -0 -0 0 0 0 0 -0 -0 -0 0 0 0 0 0 0 0 1 1 0 1 1 0 1 1 1 1 1 1 0 0 0 0 1 1 0 0 0 0 1
-0 0 0 -0 -0 -0 0 0 -0 0 0 -0 0 0 0 0 -0 0 1 0 0 1 -0 1 1 1 -0 0 1 0 1 0 0 1 0 0 0 0 0 0 1 0 0
-0 0 0 0 -0 0 -0 -0 -0 -0 0 0 0 -0 0 0 -0 0 1 0 0 0 1 0 1 2 1 1 1 1 0 0 0 0 0 0 0 0 0 0 0 0 0
-0 -0 0 -0 0 0 0 0 -0 -0 0 0 0 0 0 0 0 0 0 1 0 1 0 0 1 1 1 0 1 0 1 0 0 0 0 0 0 0 0 0 0 0 0
-0 -0 -0 0 0 0 -0 0 0 0 0 0 0 0 0 0 0 0 0 0 0 0 0 1 0 0 1 1 1 0 0 1 0 -0 -0 0 0 0 0 -0 -0 0 0
-0 -0 -0 0 0 -0 0 0 -0 -0 0 -0 -0 -0 0 -0 0 0 0 0 0 0 0 0 0 0 0 1 1 -0 -0 0 0 0 0 -0 -0 -0 0 -0 -0 0 -0
-0 -0 -0 -0 0 0 -0 0 -0 0 -0 -0 -0 0 0 -0 -0 0 0 0 0 0 0 0 0 0 0 0 0 1 0 0 0 -0 0 0 -0 0 0 -0 -0 -0 -1
-0 -0 -0 -0 0 0 0 0 0 0 0 -0 0 0 0 0 -0 0 -0 0 0 0 0 0 0 0 0 1 0 0 -0 0 0 -0 0 0 -0 -0 -0 -0 -0 -0 0
Wind_Speed_500mb
26 34 35 36 36 35 34 35 36 35 34 35 36 38 41 41 42 41 43 46 46 45 42 42 41 40 39 38 42 42 43 45 44 39 34 35 34 40 46 36 28 32 31
35 38 37 36 35 35 35 34 35 34 34 36 37 39 40 41 43 43 44 43 43 42 40 39 41 39 40 39 45 46 47 43 47 45 38 40 39 36 36 30 23 30 30
38 39 38 36 37 36 35 33 34 35 34 37 37 41 39 41 42 43 43 41 40 40 39 36 38 36 39 42 46 48 50 43 45 30 40 42 42 37 35 32 31 32 32
40 34 37 34 33 33 33 32 33 34 34 36 37 40 38 38 41 40 41 41 40 39 36 37 36 35 40 41 45 48 48 43 42 46 28 42 43 40 39 37 37 35 33
49 32 36 35 33 29 30 30 31 32 36 35 36 38 40 42 43 41 40 39 36 34 33 35 33 35 37 43 46 49 46 40 37 25 33 38 40 39 39 36 34 32 30
37 28 32 29 27 24 26 28 29 31 35 36 35 36 38 39 39 35 33 34 34 33 35 34 32 33 35 44 45 54 56 46 41 33 34 37 38 35 34 33 32 29 28
34 32 31 27 25 24 24 25 29 30 33 36 35 35 35 35 37 38 36 38 37 35 35 35 33 34 35 40 50 53 50 34 22 22 30 34 34 27 27 27 28 26 23
35 30 30 26 26 27 23 27 29 30 32 35 37 36 35 35 38 37 41 40 38 37 37 36 36 37 40 45 42 40 40 36 33 33 30 32 28 27 27 24 23 21 20
35 23 24 27 24 26 26 29 29 30 32 33 33 33 35 35 36 37 40 39 39 40 39 39 39 41 46 47 48 47 45 39 29 30 24 30 28 26 25 26 25 24 24
43 29 22 26 31 26 25 27 30 31 32 33 34 36 34 36 34 34 34 37 40 41 42 47 49 51 50 44 44 34 34 33 14 12 21 28 26 26 26 26 27 26 26
38 31 26 31 37 13 24 28 31 33 33 36 41 39 36 27 28 33 35 40 42 47 48 40 35 34 43 47 38 37 36 30 7 16 22 25 25 26 27 27 27 28 29
31 29 30 35 33 24 20 39 36 33 30 29 32 28 33 31 22 34 35 40 35 30 31 33 28 26 21 21 31 29 30 14 16 19 22 24 25 27 28 28 30 31 31
33 45 47 30 30 32 27 32 29 23 25 26 32 34 34 34 27 32 28 17 28 22 21 27 21 27 24 26 20 24 18 14 17 18 23 25 27 28 30 32 32 30 29
28 36 31 30 22 20 30 23 30 23 25 16 31 29 27 31 20 11 17 16 26 25 31 27 24 24 15 25 29 28 24 15 16 26 29 30 30 33 33 31 30 30 30
36 30 22 24 30 26 14 11 29 21 34 23 37 40 30 21 21 17 26 5 12 17 31 21 22 24 23 16 22 19 19 27 16 33 32 32 32 31 30 30 31 32 33
35 24 16 27 26 24 25 32 31 29 27 27 18 33 29 20 18 18 17 9 16 17 19 16 18 20 11 21 17 22 16 22 26 17 36 35 30 28 29 31 33 34 34
28 26 22 25 28 26 41 27 27 28 25 24 19 21 22 23 24 23 9 45 21 20 31 29 24 17 17 13 22 16 23 20 28 18 12 15 31 29 28 30 33 34 35
30 38 26 34 20 36 31 32 33 31 29 14 22 24 31 24 16 15 18 22 20 17 16 6 19 15 16 14 13 17 12 10 24 21 13 5 8 25 28 35 37 40 41
27 36 25 23 23 41 25 21 27 31 21 21 19 16 27 27 13 12 8 25 19 16 19 19 15 15 12 9 19 24 21 6 14 7 22 21 12 10 22 28 34 38 39
34 35 32 33 26 34 33 26 38 26 28 25 24 15 15 21 10 16 15 22 6 14 7 19 12 19 20 14 7 7 12 12 13 11 9 20 15 17 12 17 10 20 23
37 40 28 28 34 33 45 40 43 26 32 23 23 16 11 16 13 4 14 18 11 19 19 23 21 17 18 6 6 14 11 18 19 8 14 13 22 15 18 21 12 9 15
36 34 35 39 35 30 28 30 38 38 34 23 18 14 17 7 14 4 20 13 9 6 12 9 8 9 8 7 17 11 17 17 16 12 16 12 18 11 13 10 15 15 9
35 34 37 33 32 27 27 26 37 32 27 25 22 14 18 9 13 2 8 8 18 10 12 11 5 15 10 17 18 21 6 14 15 8 13 12 18 16 6 3 6 17 16
41 29 29 22 30 27 28 18 33 33 27 27 23 21 18 20 18 8 15 11 7 8 13 5 6 7 9 13 5 17 12 10 0 10 17 14 23 10 8 10 3 12 20
48 45 31 23 26 29 29 30 28 26 19 28 26 24 24 20 21 17 10 20 25 9 8 14 13 10 8 12 18 1 6 11 8 4 16 21 12 18 10 8 13 7 18
54 48 45 34 26 35 33 31 29 25 24 26 32 24 18 18 25 24 20 16 31 21 19 17 17 14 3 3 6 12 8 23 25 11 31 25 12 9 28 8 1 3 19
Wind_Direction_500mb
126 116 113 111 111 109 101 95 91 89 88 87 88 90 92 91 92 89 83 88 89 88 88 91 88 87 88 89 90 91 89 85 80 79 83 92 99 101 93 85 95 90 85
126 120 116 114 108 106 102 94 91 92 94 91 89 90 93 94 94 96 93 91 92 86 88 88 86 86 86 88 92 88 81 83 86 75 71 88 93 99 112 122 102 92 86
128 120 117 114 109 106 99 95 92 90 93 93 90 93 90 94 96 94 94 94 90 90 85 84 85 85 84 88 90 80 77 87 86 83 68 76 88 93 99 102 97 90 89
121 121 119 117 112 109 103 101 96 93 94 94 94 98 94 96 104 98 98 95 93 90 86 88 86 87 89 94 96 91 84 73 82 96 94 83 89 89 91 93 92 89 90
136 139 121 114 108 109 108 105 98 92 95 97 96 99 99 97 99 99 97 92 88 88 89 86 87 85 91 97 101 94 87 84 72 75 94 83 88 87 89 88 94 94 90
125 137 121 118 119 115 111 109 105 102 100 103 101 103 103 104 102 98 93 92 92 88 87 86 86 88 93 102 99 92 87 82 87 65 84 92 87 92 94 94 92 89 86
124 130 123 117 116 113 111 114 109 109 104 104 105 110 109 105 99 95 98 95 91 89 88 87 87 89 92 103 97 96 86 84 73 82 89 95 93 93 96 96 97 95 90
124 125 122 116 115 115 110 117 115 113 112 106 109 113 112 107 100 98 95 91 87 87 86 87 86 88 90 107 97 89 89 93 52 66 84 91 94 94 88 90 88 83 77
119 123 112 114 115 118 111 115 114 117 116 112 107 115 115 109 101 104 98 90 89 86 83 82 81 82 87 101 93 89 91 90 68 72 80 88 89 88 86 81 82 78 73
129 135 117 93 98 106 114 118 116 117 117 113 104 104 109 105 103 105 95 92 88 82 83 81 81 80 80 90 90 91 97 95 62 75 83 81 83 84 82 78 74 73 72
133 127 121 132 119 93 112 114 115 114 112 113 105 108 90 93 98 107 101 92 86 84 82 78 78 81 80 74 74 79 78 104 16 55 77 83 84 84 80 78 77 74 72
126 125 152 116 121 122 119 99 106 105 104 108 112 115 129 127 110 116 103 93 82 84 74 55 54 55 64 74 62 77 79 101 22 68 79 82 84 83 82 81 78 76 73
129 130 139 120 121 130 120 113 114 120 118 131 118 110 121 118 117 106 103 89 73 71 69 62 65 69 69 78 84 80 96 105 31 62 78 82 82 84 83 80 78 75 70
150 129 135 131 120 124 131 159 129 112 133 146 115 123 112 118 118 127 98 91 72 78 84 67 101 107 70 85 75 89 95 92 34 64 78 81 85 85 84 84 81 76 70
128 134 131 136 133 137 106 154 149 138 137 153 142 123 114 136 137 155 133 83 136 112 106 92 96 93 89 79 93 84 103 98 43 54 71 79 83 85 88 87 83 77 69
133 141 134 146 144 130 121 133 135 152 142 162 145 116 113 135 138 138 106 140 109 85 99 133 103 113 96 89 83 92 75 133 102 63 65 69 76 82 85 84 78 71 65
156 139 149 144 151 142 138 127 134 130 140 155 129 115 141 159 138 132 140 115 110 100 76 90 94 113 108 103 101 97 99 81 112 103 61 46 64 65 74 76 73 67 60
153 146 148 155 141 139 128 124 131 136 158 160 152 142 167 129 133 112 128 110 120 109 70 93 92 107 129 127 102 112 127 80 84 98 122 54 64 64 79 76 70 64 58
160 143 158 150 156 136 153 159 158 146 146 133 147 181 152 134 142 143 123 134 113 92 171 123 116 106 124 133 128 95 132 133 129 114 131 103 122 104 88 76 64 52 47
166 167 145 168 169 152 160 146 152 143 158 156 160 188 118 118 201 173 125 131 28 35 133 108 116 93 50 176 187 110 104 123 136 156 119 131 133 153 60 78 32 24 31
161 162 152 156 170 174 161 157 158 161 145 160 177 179 146 140 171 158 123 93 63 75 139 126 109 67 115 287 169 129 120 120 163 97 114 139 130 164 86 83 79 8 351
156 177 174 176 181 172 162 171 155 162 161 148 157 198 175 190 166 163 133 120 122 120 175 109 96 60 58 321 16 195 188 186 148 157 151 156 161 163 106 125 95 101 164
165 164 173 186 189 171 152 155 147 163 161 181 184 192 170 195 156 151 149 135 150 131 87 54 7 52 66 31 26 16 311 135 172 171 146 150 123 150 194 277 177 51 82
164 179 188 195 189 183 160 166 156 162 165 182 166 186 193 183 186 206 217 169 159 180 139 285 249 81 52 15 16 1 105 1 187 180 174 154 158 123 152 239 288 4 61
169 172 192 198 188 185 183 180 172 151 181 203 176 189 191 198 196 159 234 208 180 155 217 222 204 191 67 50 64 231 309 256 129 283 269 218 201 183 107 165 94 290 156
173 170 179 198 190 184 181 172 167 175 194 157 165 192 201 208 199 184 219 220 183 195 206 226 213 197 227 76 113 48 357 246 1 226 205 326 51 185 18 76 126 332 21
Wind_Speed_850mb
26 34 35 36 36 35 34 35 36 35 34 35 36 38 41 41 42 41 43 46 46 45 42 42 41 40 39 38 42 42 43 45 44 39 34 35 34 40 46 36 28 32 31
35 38 37 36 35 35 35 34 35 34 34 36 37 39 40 41 43 43 44 43 43 42 40 39 41 39 40 39 45 46 47 43 47 45 38 40 39 36 36 30 23 30 30
38 39 38 36 37 36 35 33 34 35 34 37 37 41 39 41 42 43 43 41 40 40 39 36 38 36 39 42 46 48 50 43 45 30 40 42 42 37 35 32 31 32 32
40 34 37 34 33 33 33 32 33 34 34 36 37 40 38 38 41 40 41 41 40 39 36 37 36 35 40 41 45 48 48 43 42 46 28 42 43 40 39 37 37 35 33
49 32 36 35 33 29 30 30 31 32 36 35 36 38 40 42 43 41 40 39 36 34 33 35 33 35 37 43 46 49 46 40 37 25 33 38 40 39 39 36 34 32 30
37 28 32 29 27 24 26 28 29 31 35 36 35 36 38 39 39 35 33 34 34 33 35 34 32 33 35 44 45 54 56 46 41 33 34 37 38 35 34 33 32 29 28
34 32 31 27 25 24 24 25 29 30 33 36 35 35 35 35 37 38 36 38 37 35 35 35 33 34 35 40 50 53 50 34 22 22 30 34 34 27 27 27 28 26 23
35 30 30 26 26 27 23 27 29 30 32 35 37 36 35 35 38 37 41 40 38 37 37 36 36 37 40 45 42 40 40 36 33 33 30 32 28 27 27 24 23 21 20
35 23 24 27 24 26 26 29 29 30 32 33 33 33 35 35 36 37 40 39 39 40 39 39 39 41 46 47 48 47 45 39 29 30 24 30 28 26 25 26 25 24 24
43 29 22 26 31 26 25 27 30 31 32 33 34 36 34 36 34 34 34 37 40 41 42 47 49 51 50 44 44 34 34 33 14 12 21 28 26 26 26 26 27 26 26
38 31 26 31 37 13 24 28 31 33 33 36 41 39 36 27 28 33 35 40 42 47 48 40 35 34 43 47 38 37 36 30 7 16 22 25 25 26 27 27 27 28 29
31 29 30 35 33 24 20 39 36 33 30 29 32 28 33 31 22 34 35 40 35 30 31 33 28 26 21 21 31 29 30 14 16 19 22 24 25 27 28 28 30 31 31
33 45 47 30 30 32 27 32 29 23 25 26 32 34 34 34 27 32 28 17 28 22 21 27 21 27 24 26 20 24 18 14 17 18 23 25 27 28 30 32 32 30 29
28 36 31 30 22 20 30 23 30 23 25 16 31 29 27 31 20 11 17 16 26 25 31 27 24 24 15 25 29 28 24 15 16 26 29 30 30 33 33 31 30 30 30
36 30 22 24 30 26 14 11 29 21 34 23 37 40 30 21 21 17 26 5 12 17 31 21 22 24 23 16 22 19 19 27 16 33 32 32 32 31 30 30 31 32 33
35 24 16 27 26 24 25 32 31 29 27 27 18 33 29 20 18 18 17 9 16 17 19 16 18 20 11 21 17 22 16 22 26 17 36 35 30 28 29 31 33 34 34
28 26 22 25 28 26 41 27 27 28 25 24 19 21 22 23 24 23 9 45 21 20 31 29 24 17 17 13 22 16 23 20 28 18 12 15 31 29 28 30 33 34 35
30 38 26 34 20 36 31 32 33 31 29 14 22 24 31 24 16 15 18 22 20 17 16 6 19 15 16 14 13 17 12 10 24 21 13 5 8 25 28 35 37 40 41
27 36 25 23 23 41 25 21 27 31 21 21 19 16 27 27 13 12 8 25 19 16 19 19 15 15 12 9 19 24 21 6 14 7 22 21 12 10 22 28 34 38 39
34 35 32 33 26 34 33 26 38 26 28 25 24 15 15 21 10 16 15 22 6 14 7 19 12 19 20 14 7 7 12 12 13 11 9 20 15 17 12 17 10 20 23
37 40 28 28 34 33 45 40 43 26 32 23 23 16 11 16 13 4 14 18 11 19 19 23 21 17 18 6 6 14 11 18 19 8 14 13 22 15 18 21 12 9 15
36 34 35 39 35 30 28 30 38 38 34 23 18 14 17 7 14 4 20 13 9 6 12 9 8 9 8 7 17 11 17 17 16 12 16 12 18 11 13 10 15 15 9
35 34 37 33 32 27 27 26 37 32 27 25 22 14 18 9 13 2 8 8 18 10 12 11 5 15 10 17 18 21 6 14 15 8 13 12 18 16 6 3 6 17 16
41 29 29 22 30 27 28 18 33 33 27 27 23 21 18 20 18 8 15 11 7 8 13 5 6 7 9 13 5 17 12 10 0 10 17 14 23 10 8 10 3 12 20
48 45 31 23 26 29 29 30 28 26 19 28 26 24 24 20 21 17 10 20 25 9 8 14 13 10 8 12 18 1 6 11 8 4 16 21 12 18 10 8 13 7 18
54 48 45 34 26 35 33 31 29 25 24 26 32 24 18 18 25 24 20 16 31 21 19 17 17 14 3 3 6 12 8 23 25 11 31 25 12 9 28 8 1 3 19
Wind_Direction_850mb
126 116 113 111 111 109 101 95 91 89 88 87 88 90 92 91 92 89 83 88 89 88 88 91 88 87 88 89 90 91 89 85 80 79 83 92 99 101 93 85 95 90 85
126 120 116 114 108 106 102 94 91 92 94 91 89 90 93 94 94 96 93 91 92 86 88 88 86 86 86 88 92 88 81 83 86 75 71 88 93 99 112 122 102 92 86
128 120 117 114 109 106 99 95 92 90 93 93 90 93 90 94 96 94 94 94 90 90 85 84 85 85 84 88 90 80 77 87 86 83 68 76 88 93 99 102 97 90 89
121 121 119 117 112 109 103 101 96 93 94 94 94 98 94 96 104 98 98 95 93 90 86 88 86 87 89 94 96 91 84 73 82 96 94 83 89 89 91 93 92 89 90
136 139 121 114 108 109 108 105 98 92 95 97 96 99 99 97 99 99 97 92 88 88 89 86 87 85 91 97 101 94 87 84 72 75 94 83 88 87 89 88 94 94 90
125 137 121 118 119 115 111 109 105 102 100 103 101 103 103 104 102 98 93 92 92 88 87 86 86 88 93 102 99 92 87 82 87 65 84 92 87 92 94 94 92 89 86
124 130 123 117 116 113 111 114 109 109 104 104 105 110 109 105 99 95 98 95 91 89 88 87 87 89 92 103 97 96 86 84 73 82 89 95 93 93 96 96 97 95 90
124 125 122 116 115 115 110 117 115 113 112 106 109 113 112 107 100 98 95 91 87 87 86 87 86 88 90 107 97 89 89 93 52 66 84 91 94 94 88 90 88 83 77
119 123 112 114 115 118 111 115 114 117 116 112 107 115 115 109 101 104 98 90 89 86 83 82 81 82 87 101 93 89 91 90 68 72 80 88 89 88 86 81 82 78 73
129 135 117 93 98 106 114 118 116 117 117 113 104 104 109 105 103 105 95 92 88 82 83 81 81 80 80 90 90 91 97 95 62 75 83 81 83 84 82 78 74 73 72
133 127 121 132 119 93 112 114 115 114 112 113 105 108 90 93 98 107 101 92 86 84 82 78 78 81 80 74 74 79 78 104 16 55 77 83 84 84 80 78 77 74 72
126 125 152 116 121 122 119 99 106 105 104 108 112 115 129 127 110 116 103 93 82 84 74 55 54 55 64 74 62 77 79 101 22 68 79 82 84 83 82 81 78 76 73
129 130 139 120 121 130 120 113 114 120 118 131 118 110 121 118 117 106 103 89 73 71 69 62 65 69 69 78 84 80 96 105 31 62 78 82 82 84 83 80 78 75 70
150 129 135 131 120 124 131 159 129 112 133 146 115 123 112 118 118 127 98 91 72 78 84 67 101 107 70 85 75 89 95 92 34 64 78 81 85 85 84 84 81 76 70
128 134 131 136 133 137 106 154 149 138 137 153 142 123 114 136 137 155 133 83 136 112 106 92 96 93 89 79 93 84 103 98 43 54 71 79 83 85 88 87 83 77 69
133 141 134 146 144 130 121 133 135 152 142 162 145 116 113 135 138 138 106 140 109 85 99 133 103 113 96 89 83 92 75 133 102 63 65 69 76 82 85 84 78 71 65
156 139 149 144 151 142 138 127 134 130 140 155 129 115 141 159 138 132 140 115 110 100 76 90 94 113 108 103 101 97 99 81 112 103 61 46 64 65 74 76 73 67 60
153 146 148 155 141 139 128 124 131 136 158 160 152 142 167 129 133 112 128 110 120 109 70 93 92 107 129 127 102 112 127 80 84 98 122 54 64 64 79 76 70 64 58
160 143 158 150 156 136 153 159 158 146 146 133 147 181 152 134 142 143 123 134 113 92 171 123 116 106 124 133 128 95 132 133 129 114 131 103 122 104 88 76 64 52 47
166 167 145 168 169 152 160 146 152 143 158 156 160 188 118 118 201 173 125 131 28 35 133 108 116 93 50 176 187 110 104 123 136 156 119 131 133 153 60 78 32 24 31
161 162 152 156 170 174 161 157 158 161 145 160 177 179 146 140 171 158 123 93 63 75 139 126 109 67 115 287 169 129 120 120 163 97 114 139 130 164 86 83 79 8 351
156 177 174 176 181 172 162 171 155 162 161 148 157 198 175 190 166 163 133 120 122 120 175 109 96 60 58 321 16 195 188 186 148 157 151 156 161 163 106 125 95 101 164
165 164 173 186 189 171 152 155 147 163 161 181 184 192 170 195 156 151 149 135 150 131 87 54 7 52 66 31 26 16 311 135 172 171 146 150 123 150 194 277 177 51 82
164 179 188 195 189 183 160 166 156 162 165 182 166 186 193 183 186 206 217 169 159 180 139 285 249 81 52 15 16 1 105 1 187 180 174 154 158 123 152 239 288 4 61
169 172 192 198 188 185 183 180 172 151 181 203 176 189 191 198 196 159 234 208 180 155 217 222 204 191 67 50 64 231 309 256 129 283 269 218 201 183 107 165 94 290 156
173 170 179 198 190 184 181 172 167 175 194 157 165 192 201 208 199 184 219 220 183 195 206 226 213 197 227 76 113 48 357 246 1 226 205 326 51 185 18 76 126 332 21